H1 CPF 2 NER 2020 11 20 9 325 01 glonass127 H2 1106403 9127 37869 2020 11 20 0 0 0 2020 11 23 23 45 0 900 1 1 0 0 0 1 H9 10 0 59173 0.00000 0 11202048.720 10053180.472 -20555340.704 10 0 59173 900.00000 0 11672777.884 12453286.330 -18919812.849 10 0 59173 1800.00000 0 12264458.532 14594203.171 -16915661.684 10 0 59173 2700.00000 0 12931171.922 16430642.913 -14582104.729 10 0 59173 3600.00000 0 13620662.839 17928452.392 -11964743.940 10 0 59173 4500.00000 0 14276676.452 19065802.904 -9114659.318 10 0 59173 5400.00000 0 14841475.638 19833869.476 -6087398.248 10 0 59173 6300.00000 0 15258431.218 20236973.798 -2941881.530 10 0 59173 7200.00000 0 15474574.912 20292187.719 260751.395 10 0 59173 8100.00000 0 15443006.915 20028416.924 3458334.699 10 0 59173 9000.00000 0 15125056.756 19485006.101 6588882.229 10 0 59173 9900.00000 0 14492106.976 18709926.594 9591783.731 10 0 59173 10800.00000 0 13527003.798 17757624.562 12408968.421 10 0 59173 11700.00000 0 12224996.533 16686621.147 14986014.213 10 0 59173 12600.00000 0 10594167.328 15556965.740 17273182.268 10 0 59173 13500.00000 0 8655333.951 14427648.794 19226358.558 10 0 59173 14400.00000 0 6441429.906 13354081.521 20807886.095 10 0 59173 15300.00000 0 3996387.490 12385746.470 21987273.674 10 0 59173 16200.00000 0 1373569.262 11564115.454 22741769.339 10 0 59173 17100.00000 0 -1366188.511 10920920.024 23056789.114 10 0 59173 18000.00000 0 -4156841.325 10476845.161 22926193.876 10 0 59173 18900.00000 0 -6929619.507 10240699.612 22352409.684 10 0 59173 19800.00000 0 -9615628.780 10209096.949 21346389.197 10 0 59173 20700.00000 0 -12148463.174 10366660.823 19927414.308 10 0 59173 21600.00000 0 -14466724.473 10686746.596 18122742.518 10 0 59173 22500.00000 0 -16516345.594 11132650.466 15967102.141 10 0 59173 23400.00000 0 -18252622.598 11659257.065 13502044.035 10 0 59173 24300.00000 0 -19641871.400 12215058.177 10775160.189 10 0 59173 25200.00000 0 -20662639.933 12744459.351 7839182.123 10 0 59173 26100.00000 0 -21306424.318 13190278.545 4750974.762 10 0 59173 27000.00000 0 -21577857.853 13496332.069 1570443.856 10 0 59173 27900.00000 0 -21494363.397 13609998.554 -1640622.755 10 0 59173 28800.00000 0 -21085282.239 13484651.694 -4819757.674 10 0 59173 29700.00000 0 -20390514.860 13081857.200 -7905036.557 10 0 59173 30600.00000 0 -19458729.992 12373238.728 -10836296.117 10 0 59173 31500.00000 0 -18345217.177 11341931.147 -13556322.359 10 0 59173 32400.00000 0 -17109473.727 9983556.731 -16011984.296 10 0 59173 33300.00000 0 -15812628.709 8306680.100 -18155289.320 10 0 59173 34200.00000 0 -14514813.988 6332720.129 -19944337.826 10 0 59173 35100.00000 0 -13272594.738 4095320.262 -21344156.986 10 0 59173 36000.00000 0 -12136569.442 1639202.093 -22327396.126 10 0 59173 36900.00000 0 -11149242.006 -981450.627 -22874869.139 10 0 59173 37800.00000 0 -10343256.847 -3705010.191 -22975932.840 10 0 59173 38700.00000 0 -9740071.917 -6464740.789 -22628693.676 10 0 59173 39600.00000 0 -9349125.694 -9191353.696 -21840038.891 10 0 59173 40500.00000 0 -9167532.647 -11815674.380 -20625492.048 10 0 59173 41400.00000 0 -9180318.881 -14271309.455 -19008896.449 10 0 59173 42300.00000 0 -9361186.392 -16497201.514 -17021933.628 10 0 59173 43200.00000 0 -9673771.680 -18439965.088 -14703487.466 10 0 59173 44100.00000 0 -10073343.394 -20055906.499 -12098867.596 10 0 59173 45000.00000 0 -10508865.098 -21312644.085 -9258908.642 10 0 59173 45900.00000 0 -10925333.962 -22190262.606 -6238964.210 10 0 59173 46800.00000 0 -11266294.801 -22681955.593 -3097816.493 10 0 59173 47700.00000 0 -11476421.951 -22794131.196 103476.055 10 0 59173 48600.00000 0 -11504059.114 -22545979.850 3302769.680 10 0 59173 49500.00000 0 -11303609.731 -21968524.642 6438041.277 10 0 59173 50400.00000 0 -10837677.283 -21103196.722 9448585.633 10 0 59173 51300.00000 0 -10078866.053 -19999997.608 12276181.120 10 0 59173 52200.00000 0 -9011167.418 -18715326.928 14866202.052 10 0 59173 53100.00000 0 -7630874.479 -17309567.338 17168657.321 10 0 59173 54000.00000 0 -5946987.442 -15844527.735 19139136.899 10 0 59173 54900.00000 0 -3981093.192 -14380850.929 20739649.769 10 0 59173 55800.00000 0 -1766724.079 -12975492.768 21939338.990 10 0 59173 56700.00000 0 651778.101 -11679376.182 22715062.045 10 0 59173 57600.00000 0 3220847.072 -10535316.019 23051826.862 10 0 59173 58500.00000 0 5879662.016 -9576299.351 22943076.272 10 0 59173 59400.00000 0 8562423.221 -8824191.302 22390816.107 10 0 59173 60300.00000 0 11200841.834 -8288919.211 21405584.459 10 0 59173 61200.00000 0 13726743.161 -7968168.691 20006262.064 10 0 59173 62100.00000 0 16074678.196 -7847604.358 18219726.267 10 0 59173 63000.00000 0 18184437.172 -7901606.765 16080353.467 10 0 59173 63900.00000 0 20003362.130 -8094495.869 13629377.666 10 0 59173 64800.00000 0 21488363.184 -8382191.211 10914115.285 10 0 59173 65700.00000 0 22607554.459 -8714240.540 7987069.085 10 0 59173 66600.00000 0 23341440.688 -9036132.827 4904926.748 10 0 59173 67500.00000 0 23683603.598 -9291798.949 1727472.051 10 0 59173 68400.00000 0 23640857.732 -9426194.684 -1483571.151 10 0 59173 69300.00000 0 23232867.362 -9387856.316 -4665739.854 10 0 59173 70200.00000 0 22491238.990 -9131319.416 -7757054.115 10 0 59173 71100.00000 0 21458126.302 -8619296.476 -10697235.879 10 0 59173 72000.00000 0 20184405.529 -7824518.696 -13428899.276 10 0 59173 72900.00000 0 18727497.861 -6731161.171 -15898687.602 10 0 59173 73800.00000 0 17148931.037 -5335788.216 -18058333.094 10 0 59173 74700.00000 0 15511743.797 -3647776.147 -19865617.012 10 0 59173 75600.00000 0 13877843.766 -1689193.143 -21285209.779 10 0 59173 76500.00000 0 12305431.484 505860.739 -22289373.503 10 0 59173 77400.00000 0 10846600.448 2892427.015 -22858512.162 10 0 59173 78300.00000 0 9545215.308 5416327.194 -22981558.173 10 0 59173 79200.00000 0 8435158.184 8016197.726 -22656187.588 10 0 59173 80100.00000 0 7539017.093 10625835.877 -21888859.861 10 0 59173 81000.00000 0 6867271.163 13176757.819 -20694681.870 10 0 59173 81900.00000 0 6418005.819 15600861.239 -19097099.606 10 0 59173 82800.00000 0 6177168.287 17833080.383 -17127424.491 10 0 59173 83700.00000 0 6119350.473 19813922.119 -14824204.745 10 0 59173 84600.00000 0 6209063.772 21491776.939 -12232455.299 10 0 59173 85500.00000 0 6402449.475 22824908.592 -9402762.702 10 0 59174 0.00000 0 6649350.073 23783040.166 -6390283.861 10 0 59174 900.00000 0 6895651.602 24348471.541 -3253659.036 10 0 59174 1800.00000 0 7085796.747 24516684.114 -53862.419 10 0 59174 2700.00000 0 7165360.331 24296408.534 3146987.689 10 0 59174 3600.00000 0 7083578.748 23709156.644 6286834.543 10 0 59174 4500.00000 0 6795725.698 22788238.596 9304881.125 10 0 59174 5400.00000 0 6265234.779 21577308.988 12142757.870 10 0 59174 6300.00000 0 5465480.142 20128504.432 14745638.100 10 0 59174 7200.00000 0 4381141.318 18500251.552 17063280.730 10 0 59174 8100.00000 0 3009095.773 16754837.321 19050981.676 10 0 59174 9000.00000 0 1358802.423 14955842.717 20670417.482 10 0 59174 9900.00000 0 -547839.697 13165545.684 21890366.715 10 0 59174 10800.00000 0 -2677152.113 11442399.939 22687297.178 10 0 59174 11700.00000 0 -4984830.462 9838692.567 23045809.198 10 0 59174 12600.00000 0 -7417544.556 8398475.912 22958927.656 10 0 59174 13500.00000 0 -9914920.707 7155857.762 22428237.827 10 0 59174 14400.00000 0 -12411826.635 6133719.450 21463862.437 10 0 59174 15300.00000 0 -14840866.856 5342914.151 20084279.810 10 0 59174 16200.00000 0 -17134987.637 4781978.370 18315985.397 10 0 59174 17100.00000 0 -19230085.743 4437368.763 16193001.523 10 0 59174 18000.00000 0 -21067514.217 4284215.161 13756242.780 10 0 59174 18900.00000 0 -22596382.035 4287559.347 11052747.161 10 0 59174 19800.00000 0 -23775552.033 4404028.873 8134785.590 10 0 59174 20700.00000 0 -24575253.163 4583876.804 5058865.301 10 0 59174 21600.00000 0 -24978238.458 4773302.403 1884644.858 10 0 59174 22500.00000 0 -24980438.521 4916955.231 -1326219.070 10 0 59174 23400.00000 0 -24591081.113 4960516.711 -4511271.000 10 0 59174 24300.00000 0 -23832269.852 4853248.975 -7608478.403 10 0 59174 25200.00000 0 -22738037.956 4550401.513 -10557451.318 10 0 59174 26100.00000 0 -21352915.531 4015371.507 -13300634.665 10 0 59174 27000.00000 0 -19730069.928 3221523.770 -15784448.440 10 0 59174 27900.00000 0 -17929097.305 2153590.396 -17960351.819 10 0 59174 28800.00000 0 -16013558.790 808588.131 -19785808.625 10 0 59174 29700.00000 0 -14048365.803 -803787.895 -21225133.767 10 0 59174 30600.00000 0 -12097125.670 -2661312.969 -22250202.874 10 0 59174 31500.00000 0 -10219560.452 -4729919.439 -22841010.220 10 0 59174 32400.00000 0 -8469108.527 -6964893.515 -22986063.525 10 0 59174 33300.00000 0 -6890810.513 -9312532.421 -22682607.673 10 0 59174 34200.00000 0 -5519568.648 -11712192.306 -21936673.112 10 0 59174 35100.00000 0 -4378852.417 -14098640.628 -20762948.458 10 0 59174 36000.00000 0 -3479903.864 -16404613.778 -19184480.485 10 0 59174 36900.00000 0 -2821474.412 -18563471.978 -17232208.350 10 0 59174 37800.00000 0 -2390102.130 -20511839.625 -14944342.271 10 0 59174 38700.00000 0 -2160915.173 -22192120.130 -12365600.025 10 0 59174 39600.00000 0 -2098924.810 -23554779.841 -9546317.578 10 0 59174 40500.00000 0 -2160750.653 -24560305.896 -6541452.505 10 0 59174 41400.00000 0 -2296702.608 -25180756.999 -3409500.925 10 0 59174 42300.00000 0 -2453129.386 -25400843.576 -211350.265 10 0 59174 43200.00000 0 -2574932.543 -25218494.033 2990908.944 10 0 59174 44100.00000 0 -2608138.693 -24644885.528 6135188.555 10 0 59174 45000.00000 0 -2502420.754 -23703940.238 9160601.911 10 0 59174 45900.00000 0 -2213461.878 -22431310.322 12008633.595 10 0 59174 46800.00000 0 -1705062.964 -20872895.781 14624257.937 10 0 59174 47700.00000 0 -950905.917 -19082958.409 16956985.723 10 0 59174 48600.00000 0 64100.502 -17121911.116 18961820.493 10 0 59174 49500.00000 0 1342947.853 -15053874.596 20600107.811 10 0 59174 50400.00000 0 2876164.226 -12944102.285 21840262.949 10 0 59174 51300.00000 0 4641974.699 -10856379.205 22658364.940 10 0 59174 52200.00000 0 6606979.982 -8850500.876 23038607.125 10 0 59174 53100.00000 0 8727326.208 -6979934.910 22973596.756 10 0 59174 54000.00000 0 10950319.103 -5289760.193 22464498.583 10 0 59174 54900.00000 0 13216417.825 -3814967.319 21521019.742 10 0 59174 55800.00000 0 15461528.195 -2579189.452 20161235.658 10 0 59174 56700.00000 0 17619502.757 -1593915.403 18411259.164 10 0 59174 57600.00000 0 19624746.196 -858217.385 16304757.518 10 0 59174 58500.00000 0 21414819.683 -359005.087 13882324.640 10 0 59174 59400.00000 0 22932937.018 -71796.128 11190718.529 10 0 59174 60300.00000 0 24130249.047 38028.313 8281976.384 10 0 59174 61200.00000 0 24967820.576 13534.290 5212422.761 10 0 59174 62100.00000 0 25418216.102 -95817.595 2041588.455 10 0 59174 63000.00000 0 25466626.205 -236502.464 -1168939.894 10 0 59174 63900.00000 0 25111485.273 -353440.701 -4356717.359 10 0 59174 64800.00000 0 24364552.331 -392580.105 -7459661.956 10 0 59174 65700.00000 0 23250449.433 -303440.138 -10417274.930 10 0 59174 66600.00000 0 21805675.166 -41508.708 -13171834.983 10 0 59174 67500.00000 0 20077133.433 429612.353 -15669541.586 10 0 59174 68400.00000 0 18120238.650 1136406.608 -17861583.376 10 0 59174 69300.00000 0 15996676.949 2094066.042 -19705108.962 10 0 59174 70200.00000 0 13771917.937 3305598.651 -21164079.675 10 0 59174 71100.00000 0 11512582.358 4761460.629 -22209986.287 10 0 59174 72000.00000 0 9283777.329 6439730.469 -22822414.678 10 0 59174 72900.00000 0 7146512.036 8306818.999 -22989448.840 10 0 59174 73800.00000 0 5155303.133 10318686.204 -22707903.090 10 0 59174 74700.00000 0 3356070.827 12422513.779 -21983379.078 10 0 59174 75600.00000 0 1784413.751 14558762.879 -20830146.922 10 0 59174 76500.00000 0 464334.270 16663530.062 -19270853.516 10 0 59174 77400.00000 0 -592533.618 18671101.625 -17336064.641 10 0 59174 78300.00000 0 -1387163.383 20516598.369 -15063650.962 10 0 59174 79200.00000 0 -1932834.540 22138599.159 -12498031.144 10 0 59174 80100.00000 0 -2254306.223 23481632.744 -9689288.216 10 0 59174 81000.00000 0 -2386503.592 24498433.379 -6692177.811 10 0 59174 81900.00000 0 -2372775.451 25151866.098 -3565048.820 10 0 59174 82800.00000 0 -2262799.251 25416441.871 -368698.791 10 0 59174 83700.00000 0 -2110224.191 25279360.544 2834812.801 10 0 59174 84600.00000 0 -1970153.600 24741039.623 5983369.737 10 0 59174 85500.00000 0 -1896573.873 23815108.709 9015998.995 10 0 59175 0.00000 0 -1939838.740 22527871.788 11874042.400 10 0 59175 900.00000 0 -2144315.058 20917261.307 14502278.341 10 0 59175 1800.00000 0 -2546287.390 19031329.722 16849972.146 10 0 59175 2700.00000 0 -3172210.462 16926341.166 18871837.415 10 0 59175 3600.00000 0 -4037379.792 14664543.581 20528890.864 10 0 59175 4500.00000 0 -5145076.751 12311712.953 21789186.298 10 0 59175 5400.00000 0 -6486222.807 9934570.490 22628415.439 10 0 59175 6300.00000 0 -8039557.712 7598178.061 23030365.730 10 0 59175 7200.00000 0 -9772334.912 5363417.838 22987227.446 10 0 59175 8100.00000 0 -11641506.640 3284658.314 22499745.007 10 0 59175 9000.00000 0 -13595351.402 1407701.280 21577209.646 10 0 59175 9900.00000 0 -15575478.454 -231906.823 20237293.043 10 0 59175 10800.00000 0 -17519128.491 -1610130.495 18505724.034 10 0 59175 11700.00000 0 -19361677.305 -2715216.238 16415812.907 10 0 59175 12600.00000 0 -21039240.247 -3547947.111 14007830.541 10 0 59175 13500.00000 0 -22491270.500 -4121369.776 11328252.146 10 0 59175 14400.00000 0 -23663043.602 -4460004.684 8428878.086 10 0 59175 15300.00000 0 -24507924.292 -4598571.438 5365846.895 10 0 59175 16200.00000 0 -24989320.034 -4580281.920 2198558.130 10 0 59175 17100.00000 0 -25082237.739 -4454772.263 -1011475.108 10 0 59175 18000.00000 0 -24774376.262 -4275760.517 -4201821.945 10 0 59175 18900.00000 0 -24066706.327 -4098529.182 -7310354.351 10 0 59175 19800.00000 0 -22973511.007 -3977339.951 -10276468.054 10 0 59175 20700.00000 0 -21521882.752 -3962891.500 -13042278.618 10 0 59175 21600.00000 0 -19750696.239 -4099929.992 -15553767.823 10 0 59175 22500.00000 0 -17709098.871 -4425115.837 -17761856.252 10 0 59175 23400.00000 0 -15454581.738 -4965239.542 -19623379.366 10 0 59175 24300.00000 0 -13050711.963 -5735864.660 -21101946.466 10 0 59175 25200.00000 0 -10564622.039 -6740457.511 -22168664.439 10 0 59175 26100.00000 0 -8064362.323 -7970042.324 -22802711.140 10 0 59175 27000.00000 0 -5616228.603 -9403397.779 -22991746.596 10 0 59175 27900.00000 0 -3282177.538 -11007787.521 -22732153.765 10 0 59175 28800.00000 0 -1117438.935 -12740194.144 -22029104.205 10 0 59175 29700.00000 0 831575.036 -14549004.487 -20896447.848 10 0 59175 30600.00000 0 2528976.527 -16376074.753 -19356429.676 10 0 59175 31500.00000 0 3950654.096 -18159087.679 -17439239.807 10 0 59175 32400.00000 0 5085019.421 -19834101.664 -15182406.889 10 0 59175 33300.00000 0 5933219.643 -21338183.800 -12630047.868 10 0 59175 34200.00000 0 6508809.129 -22612015.346 -9831990.174 10 0 59175 35100.00000 0 6836897.570 -23602359.795 -6842784.781 10 0 59175 36000.00000 0 6952813.409 -24264289.853 -3720630.661 10 0 59175 36900.00000 0 6900341.926 -24563080.293 -526232.836 10 0 59175 37800.00000 0 6729614.930 -24475688.171 2678382.842 10 0 59175 38700.00000 0 6494743.238 -23991759.645 5831074.543 10 0 59175 39600.00000 0 6251293.257 -23114122.794 8870785.213 10 0 59175 40500.00000 0 6053714.904 -21858747.494 11738716.201 10 0 59175 41400.00000 0 5952829.374 -20254175.595 14379451.744 10 0 59175 42300.00000 0 5993482.003 -18340446.504 16742013.581 10 0 59175 43200.00000 0 6212458.070 -16167563.769 18780826.926 10 0 59175 44100.00000 0 6636747.919 -13793566.668 20456580.917 10 0 59175 45000.00000 0 7282233.044 -11282286.546 21736968.843 10 0 59175 45900.00000 0 8152847.322 -8700879.895 22597295.786 10 0 59175 46800.00000 0 9240248.065 -6117238.714 23020943.625 10 0 59175 47700.00000 0 10524010.843 -3597383.391 22999685.713 10 0 59175 48600.00000 0 11972340.798 -1202943.707 22533845.914 10 0 59175 49500.00000 0 13543272.356 1011170.114 21632299.083 10 0 59175 50400.00000 0 15186309.288 2998811.820 20312312.472 10 0 59175 51300.00000 0 16844439.188 4724275.996 18599230.018 10 0 59175 52200.00000 0 18456440.819 6163538.871 16526003.946 10 0 59175 53100.00000 0 19959390.312 7305011.935 14132580.782 10 0 59175 54000.00000 0 21291263.403 8149776.900 11465151.434 10 0 59175 54900.00000 0 22393526.123 8711291.638 8575277.653 10 0 59175 55800.00000 0 23213605.827 9014578.438 5518909.944 10 0 59175 56700.00000 0 23707138.544 9094927.651 2355314.355 10 0 59175 57600.00000 0 23839897.059 8996170.307 -854072.040 10 0 59175 58500.00000 0 23589316.721 8768591.836 -4046835.059 10 0 59175 59400.00000 0 22945552.403 8466574.828 -7160803.349 10 0 59175 60300.00000 0 21912019.437 8146070.884 -10135269.839 10 0 59175 61200.00000 0 20505393.114 7862009.529 -12912189.589 10 0 59175 62100.00000 0 18755064.409 7665755.465 -15437329.147 10 0 59175 63000.00000 0 16702072.861 7602723.844 -17661343.316 10 0 59175 63900.00000 0 14397560.233 7710256.773 -19540756.465 10 0 59175 64800.00000 0 11900809.193 8015853.264 -21038827.698 10 0 59175 65700.00000 0 9276949.232 8535829.691 -22126281.656 10 0 59175 66600.00000 0 6594426.494 9274469.239 -22781889.587 10 0 59175 67500.00000 0 3922344.179 10223697.689 -22992888.734 10 0 59175 68400.00000 0 1327785.689 11363300.135 -22755231.591 10 0 59175 69300.00000 0 -1126766.716 12661669.774 -22073660.189 10 0 59175 70200.00000 0 -3385809.409 14077057.027 -20961604.441 10 0 59175 71100.00000 0 -5402891.668 15559265.715 -19440907.157 10 0 59175 72000.00000 0 -7142300.559 17051723.813 -17541382.092 10 0 59175 72900.00000 0 -8580287.230 18493840.453 -15300214.728 10 0 59175 73800.00000 0 -9705785.223 19823548.726 -12761218.740 10 0 59175 74700.00000 0 -10520593.119 20979926.160 -9973964.023 10 0 59175 75600.00000 0 -11039016.826 21905781.772 -6992794.649 10 0 59175 76500.00000 0 -11286989.693 22550100.448 -3875757.151 10 0 59175 77400.00000 0 -11300710.620 22870241.806 -683461.294 10 0 59175 78300.00000 0 -11124860.451 22833801.633 2522103.594 10 0 59175 79200.00000 0 -10810474.355 22420058.597 5678773.074 10 0 59175 80100.00000 0 -10412561.739 21620946.747 8725409.121 10 0 59175 81000.00000 0 -9987575.261 20441514.475 11603075.623 10 0 59175 81900.00000 0 -9590836.001 18899852.089 14256165.778 10 0 59175 82800.00000 0 -9274022.988 17026492.286 16633460.614 10 0 59175 83700.00000 0 -9082831.861 14863309.311 18689099.705 10 0 59175 84600.00000 0 -9054899.840 12461962.915 20383447.177 10 0 59175 85500.00000 0 -9218082.739 9881951.513 21683838.114 10 0 59176 0.00000 0 -9589154.893 7188354.344 22565192.944 10 0 59176 900.00000 0 -10172985.893 4449354.453 23010489.659 10 0 59176 1800.00000 0 -10962227.021 1733643.340 23011085.913 10 0 59176 2700.00000 0 -11937522.538 -892187.837 22566885.773 10 0 59176 3600.00000 0 -13068236.037 -3366165.291 21686347.977 10 0 59176 4500.00000 0 -14313664.297 -5633255.496 20386335.056 10 0 59176 5400.00000 0 -15624689.421 -7647399.976 18691805.206 10 0 59176 6300.00000 0 -16945802.700 -9373178.990 16635351.193 10 0 59176 7200.00000 0 -18217417.823 -10787035.748 14256593.274 10 0 59176 8100.00000 0 -19378378.689 -11878010.467 11601435.665 10 0 59176 9000.00000 0 -20368558.277 -12647953.256 8721198.733 10 0 59176 9900.00000 0 -21131440.362 -13111206.078 5671641.847 10 0 59176 10800.00000 0 -21616575.651 -13293766.103 2511894.224 10 0 59176 11700.00000 0 -21781808.184 -13231964.501 -696686.562 10 0 59176 12600.00000 0 -21595176.640 -12970715.368 -3891706.584 10 0 59176 13500.00000 0 -21036408.211 -12561408.148 -7010954.753 10 0 59176 14400.00000 0 -20097939.353 -12059532.527 -9993624.739 10 0 59176 15300.00000 0 -18785417.621 -11522136.823 -12781514.530 10 0 59176 16200.00000 0 -17117660.661 -11005228.517 -15320178.702 10 0 59176 17100.00000 0 -15126071.694 -10561228.596 -17560009.241 10 0 59176 18000.00000 0 -12853534.230 -10236589.379 -19457222.007 10 0 59176 18900.00000 0 -10352831.195 -10069678.738 -20974728.017 10 0 59176 19800.00000 0 -7684654.158 -10089022.220 -22082871.193 10 0 59176 20700.00000 0 -4915286.170 -10311979.177 -22760017.080 10 0 59176 21600.00000 0 -2114055.613 -10743910.211 -22992980.419 10 0 59176 22500.00000 0 649331.755 -11377871.965 -22777282.915 10 0 59176 23400.00000 0 3307470.195 -12194852.434 -22117236.211 10 0 59176 24300.00000 0 5797828.387 -13164536.632 -21025848.879 10 0 59176 25200.00000 0 8065113.017 -14246569.613 -19524559.858 10 0 59176 26100.00000 0 10063322.948 -15392262.404 -17642804.514 10 0 59176 27000.00000 0 11757408.975 -16546667.616 -15417422.867 10 0 59176 27900.00000 0 13124471.212 -17650935.720 -12891922.789 10 0 59176 28800.00000 0 14154446.007 -18644851.252 -10115613.902 10 0 59176 29700.00000 0 14850256.254 -19469440.876 -7142630.461 10 0 59176 30600.00000 0 15227421.766 -20069542.524 -4030863.516 10 0 59176 31500.00000 0 15313149.204 -20396226.985 -840824.462 10 0 59176 32400.00000 0 15144942.930 -20408970.020 2365537.004 10 0 59176 33300.00000 0 14768798.029 -20077484.144 5526036.869 10 0 59176 34200.00000 0 14237053.817 -19383133.951 8579459.009 10 0 59176 35100.00000 0 13605999.857 -18319876.735 11466732.492 10 0 59176 36000.00000 0 12933336.106 -16894690.164 14132061.845 10 0 59176 36900.00000 0 12275594.153 -15127470.244 16523989.411 10 0 59176 37800.00000 0 11685627.374 -13050404.644 18596370.806 10 0 59176 38700.00000 0 11210274.285 -10706847.792 20309246.443 10 0 59176 39600.00000 0 10888291.646 -8149744.366 21629594.135 10 0 59176 40500.00000 0 10748642.403 -5439665.759 22531950.229 10 0 59176 41400.00000 0 10809208.723 -2642539.391 22998888.982 10 0 59176 42300.00000 0 11075982.962 172836.978 23021352.217 10 0 59176 43200.00000 0 11542769.930 2937395.527 22598823.771 10 0 59176 44100.00000 0 12191413.117 5584408.197 21739345.531 10 0 59176 45000.00000 0 12992536.303 8052000.483 20459374.335 10 0 59176 45900.00000 0 13906771.048 10285467.335 18783481.441 10 0 59176 46800.00000 0 14886420.629 12239296.932 16743898.769 10 0 59176 47700.00000 0 15877492.885 13878819.326 14379918.732 10 0 59176 48600.00000 0 16822018.802 15181411.923 11737157.088 10 0 59176 49500.00000 0 17660561.324 16137211.368 8866690.870 10 0 59176 50400.00000 0 18334810.064 16749301.343 5824086.186 10 0 59176 51300.00000 0 18790153.234 17033367.361 2668333.119 10 0 59176 52200.00000 0 18978118.022 17016831.859 -539292.701 10 0 59176 53100.00000 0 18858575.302 16737504.738 -3736420.120 10 0 59176 54000.00000 0 18401613.686 16241805.378 -6860800.844 10 0 59176 54900.00000 0 17589001.306 15582630.714 -9851531.768 10 0 59176 55800.00000 0 16415170.766 14816959.509 -12650256.159 10 0 59176 56700.00000 0 14887682.790 14003294.844 -15202318.808 10 0 59176 57600.00000 0 13027146.229 13199054.135 -17457850.880 10 0 59176 58500.00000 0 10866595.486 12458018.707 -19372761.524 10 0 59176 59400.00000 0 8450349.712 11827952.588 -20909615.280 10 0 59176 60300.00000 0 5832400.480 11348493.033 -22038376.790 10 0 59176 61200.00000 0 3074395.101 11049403.611 -22737007.170 10 0 59176 62100.00000 0 243300.055 10949264.934 -22991899.729 10 0 59176 63000.00000 0 -2591157.321 11054659.161 -22798146.214 10 0 59176 63900.00000 0 -5359161.155 11359882.962 -22159628.408 10 0 59176 64800.00000 0 -7993481.100 11847200.758 -21088933.703 10 0 59176 65700.00000 0 -10432035.961 12487626.719 -19607096.924 10 0 59176 66600.00000 0 -12620239.605 13242201.257 -17743174.385 10 0 59176 67500.00000 0 -14513031.542 14063706.558 -15533659.586 10 0 59176 68400.00000 0 -16076508.300 14898747.048 -13021753.171 10 0 59176 69300.00000 0 -17289088.847 15690105.225 -10256502.767 10 0 59176 70200.00000 0 -18142167.484 16379271.886 -7291830.842 10 0 59176 71100.00000 0 -18640229.490 16909042.723 -4185470.803 10 0 59176 72000.00000 0 -18800427.555 17226070.870 -997833.348 10 0 59176 72900.00000 0 -18651639.875 17283267.405 2209173.920 10 0 59176 73800.00000 0 -18233052.359 17041948.777 5373350.002 10 0 59176 74700.00000 0 -17592327.100 16473641.286 8433403.377 10 0 59176 75600.00000 0 -16783436.074 15561467.635 11330131.082 10 0 59176 76500.00000 0 -15864252.411 14301058.368 14007551.805 10 0 59176 77400.00000 0 -14894000.963 12700951.044 16413972.043 10 0 59176 78300.00000 0 -13930674.912 10782461.245 18502966.229 10 0 59176 79200.00000 0 -13028525.915 8579031.204 20234253.700 10 0 59176 80100.00000 0 -12235731.513 6135083.078 21574457.429 10 0 59176 81000.00000 0 -11592335.797 3504423.843 22497731.833 10 0 59176 81900.00000 0 -11128547.730 748266.558 22986249.277 10 0 59176 82800.00000 0 -10863466.772 -2067051.792 23030537.193 10 0 59176 83700.00000 0 -10804287.983 -4872563.764 22629660.184 10 0 59176 84600.00000 0 -10946019.324 -7599275.683 21791243.829 10 0 59176 85500.00000 0 -11271723.181 -10180777.327 20531339.322 99